sat.trackr.live / text

‹ back to catalog

STARLINK-36458

NORAD 67343 · 2026-003K

PAYLOAD ACTIVE UNKNOWN

§ Identity

Operator
Country
US
Launch date
2026-01-09
Launch site
AFETR
Launch vehicle
Mass (kg)
RCS (m²)

Purposes: comms

External: N2YO · Heavens-Above · Gunter

§ Orbital elements

Epoch: 2026-09-19T13:09:25.766496Z

Period
94.27 min
Inclination
42.9992°
Eccentricity
0.0001562
Mean motion
15.27592383 rev/d
Perigee alt
481.9 km
Apogee alt
484.1 km
Semi-major
6,861.1 km
B*
3.8689e-4
RAAN
212.1177°
Arg perigee
265.0199°
Mean anomaly
95.0474°
Rev number
3,847

§ Raw data

STARLINK-364581 67343U 26003K   26262.54821489  .00010403  00000+0  38689-3 0  99972 67343  42.9992 212.1177 0001562 265.0199  95.0474 15.27592383 38473

JSON: /api/v1/satellites/67343 · /tle

For live sub-satellite position, see the globe view (requires WebGL).

§ Visibility from observer

Set your observer location to see the next 7 days of passes ≥ 10°. The values pass through the URL so the page stays shareable.

No JS? Fill the form by hand. The geolocation button needs JavaScript.